COSMOS 1153

导读 | 星芒AI

COSMOS 1153 是苏联于1980年4月2日发射的一颗军事侦察卫星,搭载于联盟号火箭,任务涉及光学和电子情报收集。该卫星属于“坦普尔”(Temp)系列,用于监视战略目标和军事活动。其具体轨道参数和任务细节未公开,但据推测,它运行在近地轨道,具备高分辨率成像能力。COSMOS 1153 在苏联太空侦察体系中扮演重要角色,体现了冷战时期苏联在空间监视技术上的发展水平。

基本信息
目录编号:
11680
目录名称:
COSMOS 1153
国际标识:
1980-007A
轨道中心:
EARTH
卫星名称:
COSMOS 1153
卫星全名:
--
卫星状态:
在轨 (已飞行16714 天)
发射日期:
1980-01-25 UTC
国别 :
俄罗斯(独联体) (CIS)
星等 :
--
轨道信息
数据来源 国际轨道数据
星历时间: 2025-10-28T21:39:21+0800
17小时前
查看轨道信息
半长轴: 7363.942km
偏心率: 0.0035713
轨道倾角: 82.933°
近地点辐角 260.720°
升交点赤经 341.943°
平近点角 251.978°
近地点: 959.508km
远地点: 1012.106km
周期: 104.815分钟
每日圈数: 13.738435
详细信息
使用方式:
暂无
2D轨道图
3D轨道图
轨道高度分析图
轨道倾角分析图
轨道综合分析图
查看轨道综合分析图